Year,Month,Day,Hour,Minute,Value (Times are PST for temperature in C)
2020,01,03,00,00,4.60
2020,01,03,00,01,4.60
2020,01,03,00,02,4.60
2020,01,03,00,03,4.60
2020,01,03,00,04,4.60
2020,01,03,00,05,4.60
2020,01,03,00,06,4.60
2020,01,03,00,07,4.70
2020,01,03,00,08,4.70
2020,01,03,00,09,4.70
2020,01,03,00,10,4.70
2020,01,03,00,11,4.70
2020,01,03,00,12,4.70
2020,01,03,00,13,4.70
2020,01,03,00,14,4.70
2020,01,03,00,15,4.70
2020,01,03,00,16,4.70
2020,01,03,00,17,4.70
2020,01,03,00,18,4.70
2020,01,03,00,19,4.80
2020,01,03,00,20,4.80
2020,01,03,00,21,4.80
2020,01,03,00,22,4.80
2020,01,03,00,23,4.80
2020,01,03,00,24,4.80
2020,01,03,00,25,4.80
2020,01,03,00,26,4.80
2020,01,03,00,27,4.80
2020,01,03,00,28,4.80
2020,01,03,00,29,4.80
2020,01,03,00,30,4.80
2020,01,03,00,31,4.80
2020,01,03,00,32,4.80
2020,01,03,00,33,4.80
2020,01,03,00,34,4.80
2020,01,03,00,35,4.80
2020,01,03,00,36,4.80
2020,01,03,00,37,4.80
2020,01,03,00,38,4.80
2020,01,03,00,39,4.80
2020,01,03,00,40,4.80
2020,01,03,00,41,4.70
2020,01,03,00,42,4.70
2020,01,03,00,43,4.70
2020,01,03,00,44,4.70
2020,01,03,00,45,4.70
2020,01,03,00,46,4.70
2020,01,03,00,47,4.70
2020,01,03,00,48,4.70
2020,01,03,00,49,4.70
2020,01,03,00,50,4.60
2020,01,03,00,51,4.60
2020,01,03,00,52,4.60
2020,01,03,00,53,4.60
2020,01,03,00,54,4.60
2020,01,03,00,55,4.60
2020,01,03,00,56,4.60
2020,01,03,00,57,4.60
2020,01,03,00,58,4.60
2020,01,03,00,59,4.60
2020,01,03,01,00,4.60
2020,01,03,01,01,4.60
2020,01,03,01,02,4.60
2020,01,03,01,03,4.50
2020,01,03,01,04,4.50
2020,01,03,01,05,4.50
2020,01,03,01,06,4.50
2020,01,03,01,07,4.50
2020,01,03,01,08,4.50
2020,01,03,01,09,4.50
2020,01,03,01,10,4.50
2020,01,03,01,11,4.60
2020,01,03,01,12,4.60
2020,01,03,01,13,4.60
2020,01,03,01,14,4.60
2020,01,03,01,15,4.60
2020,01,03,01,16,4.60
2020,01,03,01,17,4.60
2020,01,03,01,18,4.60
2020,01,03,01,19,4.60
2020,01,03,01,20,4.60
2020,01,03,01,21,4.60
2020,01,03,01,22,4.60
2020,01,03,01,23,4.60
2020,01,03,01,24,4.60
2020,01,03,01,25,4.60
2020,01,03,01,26,4.60
2020,01,03,01,27,4.60
2020,01,03,01,28,4.60
2020,01,03,01,29,4.60
2020,01,03,01,30,4.60
2020,01,03,01,31,4.60
2020,01,03,01,32,4.70
2020,01,03,01,33,4.70
2020,01,03,01,34,4.70
2020,01,03,01,35,4.70
2020,01,03,01,36,4.70
2020,01,03,01,37,4.70
2020,01,03,01,38,4.80
2020,01,03,01,39,4.80
2020,01,03,01,40,4.80
2020,01,03,01,41,4.80
2020,01,03,01,42,4.80
2020,01,03,01,43,4.80
2020,01,03,01,44,4.80
2020,01,03,01,45,4.80
2020,01,03,01,46,4.80
2020,01,03,01,47,4.80
2020,01,03,01,48,4.90
2020,01,03,01,49,4.90
2020,01,03,01,50,4.90
2020,01,03,01,51,4.90
2020,01,03,01,52,4.90
2020,01,03,01,53,4.90
2020,01,03,01,54,5.00
2020,01,03,01,55,5.00
2020,01,03,01,56,5.00
2020,01,03,01,57,5.00
2020,01,03,01,58,5.00
2020,01,03,01,59,5.00
2020,01,03,02,00,5.00
2020,01,03,02,01,5.10
2020,01,03,02,02,5.10
2020,01,03,02,03,5.10
2020,01,03,02,04,5.10
2020,01,03,02,05,5.10
2020,01,03,02,06,5.10
2020,01,03,02,07,5.20
2020,01,03,02,08,5.20
2020,01,03,02,09,5.20
2020,01,03,02,10,5.20
2020,01,03,02,11,5.20
2020,01,03,02,12,5.20
2020,01,03,02,13,5.20
2020,01,03,02,14,5.20
2020,01,03,02,15,5.20
2020,01,03,02,16,5.20
2020,01,03,02,17,5.30
2020,01,03,02,18,5.30
2020,01,03,02,19,5.30
2020,01,03,02,20,5.30
2020,01,03,02,21,5.40
2020,01,03,02,22,5.40
2020,01,03,02,23,5.40
2020,01,03,02,24,5.50
2020,01,03,02,25,5.50
2020,01,03,02,26,5.50
2020,01,03,02,27,5.60
2020,01,03,02,28,5.60
2020,01,03,02,29,5.60
2020,01,03,02,30,5.70
2020,01,03,02,31,5.70
2020,01,03,02,32,5.80
2020,01,03,02,33,5.80
2020,01,03,02,34,5.80
2020,01,03,02,35,5.80
2020,01,03,02,36,5.90
2020,01,03,02,37,5.90
2020,01,03,02,38,5.90
2020,01,03,02,39,5.90
2020,01,03,02,40,5.90
2020,01,03,02,41,5.90
2020,01,03,02,42,5.90
2020,01,03,02,43,5.90
2020,01,03,02,44,5.90
2020,01,03,02,45,5.90
2020,01,03,02,46,5.90
2020,01,03,02,47,5.90
2020,01,03,02,48,5.90
2020,01,03,02,49,5.90
2020,01,03,02,50,6.00
2020,01,03,02,51,6.00
2020,01,03,02,52,6.00
2020,01,03,02,53,6.00
2020,01,03,02,54,6.10
2020,01,03,02,55,6.10
2020,01,03,02,56,6.10
2020,01,03,02,57,6.10
2020,01,03,02,58,6.10
2020,01,03,02,59,6.10
2020,01,03,03,00,6.10
2020,01,03,03,01,6.20
2020,01,03,03,02,6.20
2020,01,03,03,03,6.20
2020,01,03,03,04,6.20
2020,01,03,03,05,6.20
2020,01,03,03,06,6.30
2020,01,03,03,07,6.30
2020,01,03,03,08,6.30
2020,01,03,03,09,6.30
2020,01,03,03,10,6.40
2020,01,03,03,11,6.40
2020,01,03,03,12,6.40
2020,01,03,03,13,6.40
2020,01,03,03,14,6.40
2020,01,03,03,15,6.50
2020,01,03,03,16,6.50
2020,01,03,03,17,6.50
2020,01,03,03,18,6.60
2020,01,03,03,19,6.60
2020,01,03,03,20,6.60
2020,01,03,03,21,6.60
2020,01,03,03,22,6.70
2020,01,03,03,23,6.70
2020,01,03,03,24,6.70
2020,01,03,03,25,6.70
2020,01,03,03,26,6.70
2020,01,03,03,27,6.80
2020,01,03,03,28,6.80
2020,01,03,03,29,6.80
2020,01,03,03,30,6.80
2020,01,03,03,31,6.80
2020,01,03,03,32,6.90
2020,01,03,03,33,6.90
2020,01,03,03,34,7.00
2020,01,03,03,35,7.00
2020,01,03,03,36,7.10
2020,01,03,03,37,7.10
2020,01,03,03,38,7.10
2020,01,03,03,39,7.10
2020,01,03,03,40,7.10
2020,01,03,03,41,7.10
2020,01,03,03,42,7.10
2020,01,03,03,43,7.10
2020,01,03,03,44,7.10
2020,01,03,03,45,7.10
2020,01,03,03,46,7.10
2020,01,03,03,47,7.10
2020,01,03,03,48,7.10
2020,01,03,03,49,7.20
2020,01,03,03,50,7.20
2020,01,03,03,51,7.20
2020,01,03,03,52,7.20
2020,01,03,03,53,7.20
2020,01,03,03,54,7.30
2020,01,03,03,55,7.30
2020,01,03,03,56,7.30
2020,01,03,03,57,7.30
2020,01,03,03,58,7.30
2020,01,03,03,59,7.30
2020,01,03,04,00,7.30
2020,01,03,04,01,7.30
2020,01,03,04,02,7.30
2020,01,03,04,03,7.30
2020,01,03,04,04,7.30
2020,01,03,04,05,7.30
2020,01,03,04,06,7.30
2020,01,03,04,07,7.40
2020,01,03,04,08,7.40
2020,01,03,04,09,7.40
2020,01,03,04,10,7.40
2020,01,03,04,11,7.40
2020,01,03,04,12,7.40
2020,01,03,04,13,7.40
2020,01,03,04,14,7.50
2020,01,03,04,15,7.50
2020,01,03,04,16,7.50
2020,01,03,04,17,7.50
2020,01,03,04,18,7.50
2020,01,03,04,19,7.60
2020,01,03,04,20,7.60
2020,01,03,04,21,7.60
2020,01,03,04,22,7.60
2020,01,03,04,23,7.60
2020,01,03,04,24,7.60
2020,01,03,04,25,7.60
2020,01,03,04,26,7.60
2020,01,03,04,27,7.60
2020,01,03,04,28,7.60
2020,01,03,04,29,7.60
2020,01,03,04,30,7.60
2020,01,03,04,31,7.60
2020,01,03,04,32,7.60
2020,01,03,04,33,7.60
2020,01,03,04,34,7.60
2020,01,03,04,35,7.60
2020,01,03,04,36,7.60
2020,01,03,04,37,7.50
2020,01,03,04,38,7.50
2020,01,03,04,39,7.50
2020,01,03,04,40,7.50
2020,01,03,04,41,7.40
2020,01,03,04,42,7.40
2020,01,03,04,43,7.40
2020,01,03,04,44,7.40
2020,01,03,04,45,7.40
2020,01,03,04,46,7.40
2020,01,03,04,47,7.40
2020,01,03,04,48,7.40
2020,01,03,04,49,7.40
2020,01,03,04,50,7.30
2020,01,03,04,51,7.30
2020,01,03,04,52,7.30
2020,01,03,04,53,7.30
2020,01,03,04,54,7.30
2020,01,03,04,55,7.30
2020,01,03,04,56,7.30
2020,01,03,04,57,7.30
2020,01,03,04,58,7.30
2020,01,03,04,59,7.30
2020,01,03,05,00,7.30
2020,01,03,05,01,7.20
2020,01,03,05,02,7.20
2020,01,03,05,03,7.20
2020,01,03,05,04,7.20
2020,01,03,05,05,7.20
2020,01,03,05,06,7.20
2020,01,03,05,07,7.20
2020,01,03,05,08,7.20
2020,01,03,05,09,7.20
2020,01,03,05,10,7.20
2020,01,03,05,11,7.20
2020,01,03,05,12,7.20
2020,01,03,05,13,7.20
2020,01,03,05,14,7.20
2020,01,03,05,15,7.20
2020,01,03,05,16,7.20
2020,01,03,05,17,7.20
2020,01,03,05,18,7.20
2020,01,03,05,19,7.30
2020,01,03,05,20,7.30
2020,01,03,05,21,7.30
2020,01,03,05,22,7.20
2020,01,03,05,23,7.30
2020,01,03,05,24,7.30
2020,01,03,05,25,7.30
2020,01,03,05,26,7.30
2020,01,03,05,27,7.30
2020,01,03,05,28,7.30
2020,01,03,05,29,7.30
2020,01,03,05,30,7.30
2020,01,03,05,31,7.30
2020,01,03,05,32,7.30
2020,01,03,05,33,7.30
2020,01,03,05,34,7.30
2020,01,03,05,35,7.30
2020,01,03,05,36,7.30
2020,01,03,05,37,7.30
2020,01,03,05,38,7.30
2020,01,03,05,39,7.30
2020,01,03,05,40,7.30
2020,01,03,05,41,7.30
2020,01,03,05,42,7.30
2020,01,03,05,43,7.30
2020,01,03,05,44,7.40
2020,01,03,05,45,7.40
2020,01,03,05,46,7.40
2020,01,03,05,47,7.40
2020,01,03,05,48,7.40
2020,01,03,05,49,7.40
2020,01,03,05,50,7.40
2020,01,03,05,51,7.40
2020,01,03,05,52,7.40
2020,01,03,05,53,7.40
2020,01,03,05,54,7.40
2020,01,03,05,55,7.40
2020,01,03,05,56,7.40
2020,01,03,05,57,7.40
2020,01,03,05,58,7.40
2020,01,03,05,59,7.50
2020,01,03,06,00,7.50
2020,01,03,06,01,7.50
2020,01,03,06,02,7.50
2020,01,03,06,03,7.50
2020,01,03,06,04,7.60
2020,01,03,06,05,7.60
2020,01,03,06,06,7.60
2020,01,03,06,07,7.60
2020,01,03,06,08,7.60
2020,01,03,06,09,7.60
2020,01,03,06,10,7.70
2020,01,03,06,11,7.70
2020,01,03,06,12,7.70
2020,01,03,06,13,7.70
2020,01,03,06,14,7.80
2020,01,03,06,15,7.80
2020,01,03,06,16,7.80
2020,01,03,06,17,7.80
2020,01,03,06,18,7.80
2020,01,03,06,19,7.80
2020,01,03,06,20,7.80
2020,01,03,06,21,7.90
2020,01,03,06,22,7.90
2020,01,03,06,23,7.90
2020,01,03,06,24,7.90
2020,01,03,06,25,7.90
2020,01,03,06,26,7.90
2020,01,03,06,27,7.90
2020,01,03,06,28,7.90
2020,01,03,06,29,7.90
2020,01,03,06,30,8.00
2020,01,03,06,31,8.00
2020,01,03,06,32,8.00
2020,01,03,06,33,8.00
2020,01,03,06,34,8.00
2020,01,03,06,35,8.00
2020,01,03,06,36,8.00
2020,01,03,06,37,8.10
2020,01,03,06,38,8.10
2020,01,03,06,39,8.10
2020,01,03,06,40,8.10
2020,01,03,06,41,8.10
2020,01,03,06,42,8.10
2020,01,03,06,43,8.20
2020,01,03,06,44,8.20
2020,01,03,06,45,8.20
2020,01,03,06,46,8.20
2020,01,03,06,47,8.20
2020,01,03,06,48,8.30
2020,01,03,06,49,8.30
2020,01,03,06,50,8.30
2020,01,03,06,51,8.30
2020,01,03,06,52,8.40
2020,01,03,06,53,8.40
2020,01,03,06,54,8.40
2020,01,03,06,55,8.40
2020,01,03,06,56,8.40
2020,01,03,06,57,8.40
2020,01,03,06,58,8.40
2020,01,03,06,59,8.50
2020,01,03,07,00,8.60
2020,01,03,07,01,8.70
2020,01,03,07,02,8.70
2020,01,03,07,03,8.80
2020,01,03,07,04,8.90
2020,01,03,07,05,9.10
2020,01,03,07,06,9.20
2020,01,03,07,07,9.30
2020,01,03,07,08,9.50
2020,01,03,07,09,9.60
2020,01,03,07,10,9.70
2020,01,03,07,11,9.70
2020,01,03,07,12,9.90
2020,01,03,07,13,9.90
2020,01,03,07,14,10.00
2020,01,03,07,15,10.10
2020,01,03,07,16,10.10
2020,01,03,07,17,10.20
2020,01,03,07,18,10.30
2020,01,03,07,19,10.30
2020,01,03,07,20,10.40
2020,01,03,07,21,10.40
2020,01,03,07,22,10.50
2020,01,03,07,23,10.50
2020,01,03,07,24,10.60
2020,01,03,07,25,10.60
2020,01,03,07,26,10.60
2020,01,03,07,27,10.70
2020,01,03,07,28,10.70
2020,01,03,07,29,10.70
2020,01,03,07,30,10.70
2020,01,03,07,31,10.70
2020,01,03,07,32,10.80
2020,01,03,07,33,10.80
2020,01,03,07,34,10.80
2020,01,03,07,35,10.90
2020,01,03,07,36,10.80
2020,01,03,07,37,10.90
2020,01,03,07,38,10.90
2020,01,03,07,39,10.90
2020,01,03,07,41,10.90
2020,01,03,07,42,10.90
2020,01,03,07,43,11.00
2020,01,03,07,44,11.00
2020,01,03,07,45,11.10
2020,01,03,07,46,11.20
2020,01,03,07,47,11.20
2020,01,03,07,48,11.20
2020,01,03,07,49,11.20
2020,01,03,07,50,11.20
2020,01,03,07,51,11.20
2020,01,03,07,52,11.20
2020,01,03,07,53,11.20
2020,01,03,07,54,11.20
2020,01,03,07,55,11.20
2020,01,03,07,56,11.20
2020,01,03,07,57,11.10
2020,01,03,07,58,11.10
2020,01,03,07,59,11.00
2020,01,03,08,00,10.90
2020,01,03,08,01,10.80
2020,01,03,08,02,10.70
2020,01,03,08,03,10.60
2020,01,03,08,04,10.50
2020,01,03,08,05,10.40
2020,01,03,08,06,10.40
2020,01,03,08,07,10.40
2020,01,03,08,08,10.50
2020,01,03,08,09,10.60
2020,01,03,08,10,10.70
2020,01,03,08,11,10.80
2020,01,03,08,12,10.80
2020,01,03,08,13,10.70
2020,01,03,08,14,10.70
2020,01,03,08,15,10.80
2020,01,03,08,16,10.80
2020,01,03,08,17,10.90
2020,01,03,08,18,10.90
2020,01,03,08,19,11.10
2020,01,03,08,20,11.20
2020,01,03,08,21,11.30
2020,01,03,08,22,11.30
2020,01,03,08,23,11.40
2020,01,03,08,24,11.50
2020,01,03,08,25,11.60
2020,01,03,08,26,11.60
2020,01,03,08,27,11.70
2020,01,03,08,28,11.70
2020,01,03,08,29,11.70
2020,01,03,08,30,11.80
2020,01,03,08,31,11.80
2020,01,03,08,32,11.80
2020,01,03,08,33,11.80
2020,01,03,08,34,11.80
2020,01,03,08,35,11.80
2020,01,03,08,36,11.80
2020,01,03,08,37,11.90
2020,01,03,08,38,11.90
2020,01,03,08,39,12.00
2020,01,03,08,40,12.10
2020,01,03,08,41,12.10
2020,01,03,08,42,12.10
2020,01,03,08,43,12.10
2020,01,03,08,44,12.00
2020,01,03,08,45,12.00
2020,01,03,08,46,12.00
2020,01,03,08,47,11.90
2020,01,03,08,48,11.90
2020,01,03,08,49,11.80
2020,01,03,08,50,11.80
2020,01,03,08,51,11.70
2020,01,03,08,52,11.70
2020,01,03,08,53,11.60
2020,01,03,08,54,11.50
2020,01,03,08,55,11.40
2020,01,03,08,56,11.30
2020,01,03,08,57,11.30
2020,01,03,08,58,11.20
2020,01,03,08,59,11.20
2020,01,03,09,00,11.10
2020,01,03,09,01,11.10
2020,01,03,09,02,11.10
2020,01,03,09,03,11.00
2020,01,03,09,04,11.00
2020,01,03,09,05,11.00
2020,01,03,09,06,11.00
2020,01,03,09,07,11.00
2020,01,03,09,08,11.10
2020,01,03,09,09,11.20
2020,01,03,09,10,11.20
2020,01,03,09,11,11.30
2020,01,03,09,12,11.40
2020,01,03,09,13,11.50
2020,01,03,09,14,11.60
2020,01,03,09,15,11.60
2020,01,03,09,16,11.70
2020,01,03,09,17,11.70
2020,01,03,09,18,11.70
2020,01,03,09,19,11.80
2020,01,03,09,20,11.80
2020,01,03,09,21,11.90
2020,01,03,09,22,11.90
2020,01,03,09,23,12.00
2020,01,03,09,24,12.00
2020,01,03,09,25,12.00
2020,01,03,09,26,12.00
2020,01,03,09,27,12.00
2020,01,03,09,28,12.00
2020,01,03,09,29,12.10
2020,01,03,09,30,12.10
2020,01,03,09,31,12.10
2020,01,03,09,32,12.30
2020,01,03,09,33,12.30
2020,01,03,09,34,12.40
2020,01,03,09,35,12.40
2020,01,03,09,36,12.40
2020,01,03,09,37,12.30
2020,01,03,09,38,12.30
2020,01,03,09,39,12.30
2020,01,03,09,40,12.30
2020,01,03,09,41,12.30
2020,01,03,09,42,12.40
2020,01,03,09,43,12.40
2020,01,03,09,44,12.40
2020,01,03,09,45,12.40
2020,01,03,09,46,12.30
2020,01,03,09,47,12.30
2020,01,03,09,48,12.40
2020,01,03,09,49,12.40
2020,01,03,09,50,12.30
2020,01,03,09,51,12.40
2020,01,03,09,52,12.40
2020,01,03,09,53,12.40
2020,01,03,09,54,12.40
2020,01,03,09,55,12.30
2020,01,03,09,56,12.30
2020,01,03,09,57,12.30
2020,01,03,09,58,12.30
2020,01,03,09,59,12.30
2020,01,03,10,00,12.20
2020,01,03,10,01,12.00
2020,01,03,10,02,11.80
2020,01,03,10,03,11.60
2020,01,03,10,04,11.40
2020,01,03,10,05,11.20
2020,01,03,10,06,11.00
2020,01,03,10,07,10.90
2020,01,03,10,08,10.80
2020,01,03,10,09,10.70
2020,01,03,10,10,10.70
2020,01,03,10,11,10.60
2020,01,03,10,12,10.60
2020,01,03,10,13,10.60
2020,01,03,10,14,10.60
2020,01,03,10,15,10.60
2020,01,03,10,16,10.50
2020,01,03,10,17,10.50
2020,01,03,10,18,10.50
2020,01,03,10,19,10.50
2020,01,03,10,20,10.50
2020,01,03,10,21,10.50
2020,01,03,10,22,10.50
2020,01,03,10,23,10.50
2020,01,03,10,24,10.50
2020,01,03,10,25,10.60
2020,01,03,10,26,10.70
2020,01,03,10,27,10.70
2020,01,03,10,28,10.80
2020,01,03,10,29,10.80
2020,01,03,10,30,10.90
2020,01,03,10,31,10.90
2020,01,03,10,32,10.90
2020,01,03,10,33,11.00
2020,01,03,10,34,11.00
2020,01,03,10,35,11.10
2020,01,03,10,36,11.10
2020,01,03,10,37,11.20
2020,01,03,10,38,11.20
2020,01,03,10,39,11.20
2020,01,03,10,40,11.20
2020,01,03,10,41,11.20
2020,01,03,10,42,11.10
2020,01,03,10,43,11.10
2020,01,03,10,44,11.10
2020,01,03,10,45,11.10
2020,01,03,10,46,11.10
2020,01,03,10,47,11.10
2020,01,03,10,48,11.10
2020,01,03,10,49,11.10
2020,01,03,10,50,11.10
2020,01,03,10,51,11.20
2020,01,03,10,52,11.20
2020,01,03,10,53,11.20
2020,01,03,10,54,11.20
2020,01,03,10,55,11.20
2020,01,03,10,56,11.20
2020,01,03,10,57,11.20
2020,01,03,10,58,11.20
2020,01,03,10,59,11.30
2020,01,03,11,00,11.30
2020,01,03,11,01,11.30
2020,01,03,11,02,11.40
2020,01,03,11,03,11.50
2020,01,03,11,04,11.50
2020,01,03,11,05,11.50
2020,01,03,11,06,11.50
2020,01,03,11,07,11.50
2020,01,03,11,08,11.50
2020,01,03,11,09,11.50
2020,01,03,11,10,11.60
2020,01,03,11,11,11.60
2020,01,03,11,12,11.70
2020,01,03,11,13,11.70
2020,01,03,11,14,11.70
2020,01,03,11,15,11.70
2020,01,03,11,16,11.70
2020,01,03,11,17,11.70
2020,01,03,11,18,11.70
2020,01,03,11,19,11.80
2020,01,03,11,20,11.80
2020,01,03,11,21,11.90
2020,01,03,11,22,11.90
2020,01,03,11,23,11.90
2020,01,03,11,24,11.90
2020,01,03,11,25,11.90
2020,01,03,11,26,11.90
2020,01,03,11,27,12.00
2020,01,03,11,28,12.00
2020,01,03,11,29,12.10
2020,01,03,11,30,12.10
2020,01,03,11,31,12.10
2020,01,03,11,32,12.20
2020,01,03,11,33,12.20
2020,01,03,11,34,12.20
2020,01,03,11,35,12.20
2020,01,03,11,36,12.20
2020,01,03,11,37,12.20
2020,01,03,11,38,12.20
2020,01,03,11,39,12.20
2020,01,03,11,40,12.20
2020,01,03,11,41,12.20
2020,01,03,11,42,12.20
2020,01,03,11,43,12.20
2020,01,03,11,44,12.20
2020,01,03,11,45,12.20
2020,01,03,11,46,12.20
2020,01,03,11,47,12.20
2020,01,03,11,48,12.20
2020,01,03,11,49,12.20
2020,01,03,11,50,12.10
2020,01,03,11,51,12.10
2020,01,03,11,52,12.10
2020,01,03,11,53,12.10
2020,01,03,11,54,12.00
2020,01,03,11,55,12.00
2020,01,03,11,56,12.00
2020,01,03,11,57,12.00
2020,01,03,11,58,11.90
2020,01,03,11,59,11.90
2020,01,03,12,00,11.90
2020,01,03,12,01,11.80
2020,01,03,12,02,11.80
2020,01,03,12,03,11.80
2020,01,03,12,04,11.80
2020,01,03,12,05,11.80
2020,01,03,12,06,11.80
2020,01,03,12,07,11.80
2020,01,03,12,08,11.80
2020,01,03,12,09,11.80
2020,01,03,12,10,11.80
2020,01,03,12,11,11.90
2020,01,03,12,12,11.90
2020,01,03,12,13,12.00
2020,01,03,12,14,12.10
2020,01,03,12,15,12.20
2020,01,03,12,16,12.20
2020,01,03,12,17,12.30
2020,01,03,12,18,12.40
2020,01,03,12,19,12.40
2020,01,03,12,20,12.50
2020,01,03,12,21,12.60
2020,01,03,12,22,12.70
2020,01,03,12,23,12.70
2020,01,03,12,24,12.80
2020,01,03,12,25,12.80
2020,01,03,12,26,12.80
2020,01,03,12,27,12.80
2020,01,03,12,28,12.90
2020,01,03,12,29,12.90
2020,01,03,12,30,12.90
2020,01,03,12,31,12.90
2020,01,03,12,32,12.90
2020,01,03,12,33,12.90
2020,01,03,12,34,12.90
2020,01,03,12,35,12.90
2020,01,03,12,36,13.00
2020,01,03,12,37,13.00
2020,01,03,12,38,13.00
2020,01,03,12,39,13.00
2020,01,03,12,40,13.00
2020,01,03,12,41,13.00
2020,01,03,12,42,13.00
2020,01,03,12,43,13.00
2020,01,03,12,44,13.00
2020,01,03,12,45,12.90
2020,01,03,12,46,12.90
2020,01,03,12,47,12.90
2020,01,03,12,48,12.90
2020,01,03,12,49,12.90
2020,01,03,12,50,12.90
2020,01,03,12,51,12.80
2020,01,03,12,52,12.80
2020,01,03,12,53,12.80
2020,01,03,12,54,12.80
2020,01,03,12,55,12.80
2020,01,03,12,56,12.70
2020,01,03,12,57,12.70
2020,01,03,12,58,12.70
2020,01,03,12,59,12.60
2020,01,03,13,00,12.60
2020,01,03,13,01,12.60
2020,01,03,13,02,12.50
2020,01,03,13,03,12.40
2020,01,03,13,04,12.40
2020,01,03,13,05,12.40
2020,01,03,13,06,12.40
2020,01,03,13,07,12.30
2020,01,03,13,08,12.30
2020,01,03,13,09,12.30
2020,01,03,13,10,12.30
2020,01,03,13,11,12.20
2020,01,03,13,12,12.20
2020,01,03,13,13,12.20
2020,01,03,13,14,12.10
2020,01,03,13,15,12.10
2020,01,03,13,16,12.10
2020,01,03,13,17,12.00
2020,01,03,13,18,12.00
2020,01,03,13,19,11.90
2020,01,03,13,20,11.90
2020,01,03,13,21,11.90
2020,01,03,13,22,11.80
2020,01,03,13,23,11.80
2020,01,03,13,24,11.80
2020,01,03,13,25,11.80
2020,01,03,13,26,11.70
2020,01,03,13,27,11.70
2020,01,03,13,28,11.70
2020,01,03,13,29,11.70
2020,01,03,13,30,11.70
2020,01,03,13,31,11.70
2020,01,03,13,32,11.70
2020,01,03,13,33,11.70
2020,01,03,13,34,11.70
2020,01,03,13,35,11.70
2020,01,03,13,38,11.70
2020,01,03,13,39,11.70
2020,01,03,13,40,11.70
2020,01,03,13,41,11.70
2020,01,03,13,42,11.70
2020,01,03,13,43,11.80
2020,01,03,13,44,11.80
2020,01,03,13,45,11.90
2020,01,03,13,46,11.90
2020,01,03,13,47,11.90
2020,01,03,13,48,11.90
2020,01,03,13,49,11.90
2020,01,03,13,50,12.00
2020,01,03,13,51,12.00
2020,01,03,13,52,12.00
2020,01,03,13,53,12.00
2020,01,03,13,54,12.00
2020,01,03,13,55,12.10
2020,01,03,13,56,12.10
2020,01,03,13,57,12.10
2020,01,03,13,58,12.10
2020,01,03,13,59,12.20
2020,01,03,14,00,12.20
2020,01,03,14,01,12.20
2020,01,03,14,02,12.20
2020,01,03,14,03,12.20
2020,01,03,14,04,12.20
2020,01,03,14,05,12.20
2020,01,03,14,06,12.10
2020,01,03,14,07,12.10
2020,01,03,14,08,12.20
2020,01,03,14,09,12.20
2020,01,03,14,10,12.20
2020,01,03,14,11,12.20
2020,01,03,14,12,12.20
2020,01,03,14,13,12.20
2020,01,03,14,14,12.20
2020,01,03,14,15,12.20
2020,01,03,14,16,12.20
2020,01,03,14,17,12.20
2020,01,03,14,18,12.20
2020,01,03,14,19,12.20
2020,01,03,14,20,12.20
2020,01,03,14,21,12.10
2020,01,03,14,22,12.10
2020,01,03,14,23,12.10
2020,01,03,14,24,12.00
2020,01,03,14,25,12.00
2020,01,03,14,26,11.90
2020,01,03,14,27,11.80
2020,01,03,14,28,11.80
2020,01,03,14,29,11.70
2020,01,03,14,30,11.70
2020,01,03,14,31,11.60
2020,01,03,14,32,11.50
2020,01,03,14,45,11.10
2020,01,03,14,46,11.10
2020,01,03,14,47,11.10
2020,01,03,14,48,11.10
2020,01,03,14,49,11.10
2020,01,03,14,50,11.10
2020,01,03,15,28,11.70
2020,01,03,15,29,11.70
2020,01,03,15,30,11.60
2020,01,03,15,31,11.60
2020,01,03,15,32,11.60
2020,01,03,15,33,11.50
2020,01,03,15,34,11.50
2020,01,03,15,35,11.40
2020,01,03,15,36,11.40
2020,01,03,15,37,11.40
2020,01,03,15,38,11.30
2020,01,03,15,39,11.30
2020,01,03,15,40,11.30
2020,01,03,15,41,11.20
2020,01,03,15,42,11.20
2020,01,03,15,43,11.10
2020,01,03,15,44,11.10
2020,01,03,15,45,11.10
2020,01,03,15,46,11.10
2020,01,03,15,47,11.10
2020,01,03,15,48,11.00
2020,01,03,15,49,11.00
2020,01,03,15,50,11.00
2020,01,03,15,51,11.00
2020,01,03,15,52,11.00
2020,01,03,15,53,10.90
2020,01,03,15,54,10.90
2020,01,03,15,55,10.80
2020,01,03,15,56,10.80
2020,01,03,15,57,10.70
2020,01,03,15,58,10.70
2020,01,03,15,59,10.70
2020,01,03,16,00,10.60
2020,01,03,16,01,10.60
2020,01,03,16,02,10.60
2020,01,03,16,03,10.50
2020,01,03,16,04,10.50
2020,01,03,16,05,10.50
2020,01,03,16,06,10.40
2020,01,03,16,07,10.40
2020,01,03,16,08,10.40
2020,01,03,16,09,10.40
2020,01,03,16,10,10.40
2020,01,03,16,11,10.30
2020,01,03,16,12,10.30
2020,01,03,16,13,10.30
2020,01,03,16,14,10.30
2020,01,03,16,15,10.30
2020,01,03,16,16,10.30
2020,01,03,16,17,10.20
2020,01,03,16,18,10.20
2020,01,03,16,19,10.20
2020,01,03,16,20,10.20
2020,01,03,16,21,10.20
2020,01,03,16,22,10.20
2020,01,03,16,23,10.10
2020,01,03,16,24,10.10
2020,01,03,16,25,10.10
2020,01,03,16,26,10.10
2020,01,03,16,27,10.00
2020,01,03,16,28,10.00
2020,01,03,16,29,10.00
2020,01,03,16,30,10.00
2020,01,03,16,31,10.00
2020,01,03,16,32,10.00
2020,01,03,16,33,9.90
2020,01,03,16,34,9.90
2020,01,03,16,35,9.90
2020,01,03,16,36,9.90
2020,01,03,16,37,9.90
2020,01,03,16,38,9.90
2020,01,03,16,39,9.90
2020,01,03,16,40,9.90
2020,01,03,16,41,9.90
2020,01,03,16,42,9.90
2020,01,03,16,43,9.80
2020,01,03,16,44,9.80
2020,01,03,16,45,9.80
2020,01,03,16,46,9.80
2020,01,03,16,47,9.80
2020,01,03,16,48,9.80
2020,01,03,16,49,9.80
2020,01,03,16,50,9.80
2020,01,03,16,51,9.80
2020,01,03,16,52,9.80
2020,01,03,16,53,9.80
2020,01,03,16,54,9.80
2020,01,03,16,55,9.80
2020,01,03,16,56,9.80
2020,01,03,16,57,9.80
2020,01,03,16,58,9.70
2020,01,03,16,59,9.70
2020,01,03,17,00,9.70
2020,01,03,17,01,9.70
2020,01,03,17,02,9.70
2020,01,03,17,03,9.70
2020,01,03,17,04,9.70
2020,01,03,17,05,9.70
2020,01,03,17,06,9.70
2020,01,03,17,07,9.70
2020,01,03,17,08,9.70
2020,01,03,17,09,9.70
2020,01,03,17,10,9.70
2020,01,03,17,11,9.70
2020,01,03,17,12,9.70
2020,01,03,17,13,9.70
2020,01,03,17,14,9.70
2020,01,03,17,15,9.70
2020,01,03,17,16,9.70
2020,01,03,17,17,9.70
2020,01,03,17,18,9.70
2020,01,03,17,19,9.70
2020,01,03,17,20,9.70
2020,01,03,17,21,9.70
2020,01,03,17,22,9.70
2020,01,03,17,23,9.70
2020,01,03,17,24,9.70
2020,01,03,17,25,9.80
2020,01,03,17,26,9.80
2020,01,03,17,27,10.00
2020,01,03,17,28,10.10
2020,01,03,17,29,10.20
2020,01,03,17,30,10.30
2020,01,03,17,31,10.40
2020,01,03,17,32,10.50
2020,01,03,17,33,10.60
2020,01,03,17,34,10.60
2020,01,03,17,35,10.70
2020,01,03,17,36,10.80
2020,01,03,17,37,10.80
2020,01,03,17,38,10.80
2020,01,03,17,39,10.80
2020,01,03,17,40,10.80
2020,01,03,17,41,10.80
2020,01,03,17,42,10.80
2020,01,03,17,43,10.80
2020,01,03,17,44,10.90
2020,01,03,17,45,10.90
2020,01,03,17,46,10.90
2020,01,03,17,47,10.90
2020,01,03,17,48,10.90
2020,01,03,17,49,10.90
2020,01,03,17,50,10.90
2020,01,03,17,51,10.80
2020,01,03,17,52,10.80
2020,01,03,17,53,10.80
2020,01,03,17,54,10.80
2020,01,03,17,55,10.80
2020,01,03,17,56,10.80
2020,01,03,17,57,10.80
2020,01,03,17,58,10.70
2020,01,03,17,59,10.70
2020,01,03,18,00,10.70
2020,01,03,18,01,10.70
2020,01,03,18,02,10.60
2020,01,03,18,03,10.60
2020,01,03,18,04,10.60
2020,01,03,18,05,10.50
2020,01,03,18,06,10.50
2020,01,03,18,07,10.50
2020,01,03,18,08,10.50
2020,01,03,18,09,10.50
2020,01,03,18,10,10.40
2020,01,03,18,11,10.40
2020,01,03,18,12,10.40
2020,01,03,18,13,10.40
2020,01,03,18,14,10.30
2020,01,03,18,15,10.30
2020,01,03,18,16,10.30
2020,01,03,18,17,10.30
2020,01,03,18,18,10.20
2020,01,03,18,19,10.20
2020,01,03,18,20,10.20
2020,01,03,18,21,10.20
2020,01,03,18,22,10.20
2020,01,03,18,23,10.10
2020,01,03,18,24,10.10
2020,01,03,18,25,10.10
2020,01,03,18,26,10.10
2020,01,03,18,27,10.10
2020,01,03,18,28,10.10
2020,01,03,18,29,10.00
2020,01,03,18,30,10.00
2020,01,03,18,31,10.00
2020,01,03,18,32,10.00